When you browse on this site, cookies collect data to enhance your experience and personalize the content and advertising you see.
Visit our Privacy Policy to learn more. By continuing to use the site, you agree to this use of cookies and data.
  • In Lithuania
  • List of Countries
  • For 7 days
  • Water Temperature
  • Satellite Maps
  • Weather Map
  • Weather Widgets
  • user-avatar
    Login

    Hourly Weather Singida

    Today, 20 January, Sunday

    Time Temperature Precipitation Wind Pressure Humidity
    00:00 +17°C° 0.1 mm 0 mps 637 mmHg 91%
    01:00 +17°C° 0.1 mm 0 mps 637 mmHg 91%
    02:00 +19°C° 0 mm 1 mps 637 mmHg 92%
    03:00 +16°C° 0 mm 0 mps 637 mmHg 92%
    04:00 +16°C° 0 mm 0 mps 637 mmHg 92%
    05:00 +16°C° 0 mm 0 mps 637 mmHg 93%
    06:00 +17°C° 0.1 mm 0 mps 637 mmHg 90%
    07:00 +18°C° 0.1 mm 0 mps 638 mmHg 87%
    08:00 +19°C° 0.1 mm 0 mps 639 mmHg 85%
    09:00 +23°C° 0.4 mm 1 mps 639 mmHg 76%
    10:00 +25°C° 0.4 mm 1 mps 639 mmHg 68%
    11:00 +26°C° 0.4 mm 2 mps 639 mmHg 60%
    12:00 +26°C° 0.9 mm 2 mps 639 mmHg 63%
    13:00 +26°C° 0.9 mm 2 mps 638 mmHg 66%
    14:00 +26°C° 0.9 mm 2 mps 637 mmHg 69%
    15:00 +25°C° 1.6 mm 2 mps 637 mmHg 75%
    16:00 +24°C° 1.6 mm 1 mps 636 mmHg 80%
    17:00 +23°C° 1.6 mm 1 mps 636 mmHg 86%
    18:00 +22°C° 2.4 mm 1 mps 636 mmHg 87%
    19:00 +21°C° 2.4 mm 1 mps 636 mmHg 89%
    20:00 +20°C° 2.4 mm 1 mps 637 mmHg 91%
    21:00 +19°C° 1.4 mm 1 mps 637 mmHg 92%
    22:00 +19°C° 1.4 mm 1 mps 637 mmHg 93%
    23:00 +19°C° 1.4 mm 1 mps 637 mmHg 94%

    Tomorrow, 21 January, Monday

    Time Temperature Precipitation Wind Pressure Humidity
    00:00 +18°C° 0.9 mm 1 mps 637 mmHg 95%
    01:00 +18°C° 0.9 mm 1 mps 637 mmHg 95%
    02:00 +16°C° 0.9 mm 0 mps 637 mmHg 96%
    03:00 +16°C° 0.1 mm 0 mps 637 mmHg 96%
    04:00 +16°C° 0.1 mm 0 mps 637 mmHg 95%
    05:00 +15°C° 0.1 mm 0 mps 637 mmHg 94%
    06:00 +17°C° 0.1 mm 0 mps 638 mmHg 91%
    07:00 +18°C° 0.1 mm 0 mps 639 mmHg 87%
    08:00 +20°C° 0.1 mm 0 mps 639 mmHg 83%
    09:00 +23°C° 0.8 mm 1 mps 639 mmHg 80%
    10:00 +23°C° 0.8 mm 1 mps 639 mmHg 76%
    11:00 +24°C° 0.8 mm 2 mps 639 mmHg 73%
    12:00 +24°C° 0.8 mm 2 mps 638 mmHg 74%
    13:00 +24°C° 0.8 mm 2 mps 638 mmHg 75%
    14:00 +24°C° 0.8 mm 2 mps 637 mmHg 76%
    15:00 +24°C° 0.5 mm 2 mps 637 mmHg 79%
    16:00 +23°C° 0.5 mm 1 mps 637 mmHg 83%
    17:00 +22°C° 0.5 mm 1 mps 636 mmHg 86%
    18:00 +21°C° 1.4 mm 1 mps 637 mmHg 88%
    19:00 +20°C° 1.4 mm 1 mps 637 mmHg 90%
    20:00 +20°C° 1.4 mm 1 mps 637 mmHg 92%
    21:00 +19°C° 0.7 mm 1 mps 637 mmHg 92%
    22:00 +19°C° 0.7 mm 1 mps 638 mmHg 92%
    23:00 +19°C° 0.7 mm 1 mps 638 mmHg 92%

    Day after tomorrow, 22 January, Tuesday

    Time Temperature Precipitation Wind Pressure Humidity
    00:00 +19°C° 0 mm 1 mps 637 mmHg 92%
    01:00 +16°C° 0 mm 0 mps 637 mmHg 92%
    02:00 +16°C° 0 mm 0 mps 636 mmHg 92%
    03:00 +16°C° 0 mm 0 mps 636 mmHg 92%
    04:00 +16°C° 0 mm 0 mps 636 mmHg 92%
    05:00 +16°C° 0 mm 0 mps 636 mmHg 92%
    06:00 +17°C° 0 mm 0 mps 637 mmHg 89%
    07:00 +18°C° 0 mm 0 mps 638 mmHg 86%
    08:00 +19°C° 0 mm 0 mps 639 mmHg 83%
    09:00 +20°C° 0 mm 0 mps 639 mmHg 78%
    10:00 +24°C° 0 mm 1 mps 639 mmHg 72%
    11:00 +25°C° 0 mm 1 mps 639 mmHg 66%
    12:00 +25°C° 0.3 mm 1 mps 638 mmHg 66%
    13:00 +25°C° 0.3 mm 2 mps 637 mmHg 67%
    14:00 +26°C° 0.3 mm 2 mps 637 mmHg 67%
    15:00 +25°C° 0.8 mm 2 mps 636 mmHg 73%
    16:00 +24°C° 0.8 mm 1 mps 636 mmHg 79%
    17:00 +23°C° 0.8 mm 1 mps 636 mmHg 85%
    18:00 +22°C° 0.7 mm 1 mps 636 mmHg 88%
    19:00 +21°C° 0.7 mm 1 mps 636 mmHg 91%
    20:00 +20°C° 0.7 mm 1 mps 637 mmHg 94%
    21:00 +19°C° 0.2 mm 1 mps 637 mmHg 93%
    22:00 +19°C° 0.2 mm 1 mps 637 mmHg 93%
    23:00 +17°C° 0.2 mm 0 mps 637 mmHg 92%

    23 January, Wednesday

    Time Temperature Precipitation Wind Pressure Humidity
    00:00 +17°C° 0 mm 0 mps 636 mmHg 92%
    01:00 +17°C° 0 mm 0 mps 636 mmHg 92%
    02:00 +16°C° 0 mm 0 mps 635 mmHg 92%
    03:00 +16°C° 0 mm 0 mps 635 mmHg 92%
    04:00 +18°C° 0 mm 1 mps 636 mmHg 92%
    05:00 +18°C° 0 mm 1 mps 636 mmHg 91%
    06:00 +19°C° 0 mm 1 mps 636 mmHg 89%
    07:00 +20°C° 0 mm 1 mps 637 mmHg 86%
    08:00 +21°C° 0 mm 1 mps 638 mmHg 84%
    09:00 +23°C° 0 mm 1 mps 638 mmHg 76%
    10:00 +25°C° 0 mm 1 mps 639 mmHg 68%
    11:00 +27°C° 0 mm 1 mps 639 mmHg 60%
    12:00 +27°C° 0.8 mm 1 mps 638 mmHg 61%
    13:00 +27°C° 0.8 mm 1 mps 637 mmHg 63%
    14:00 +25°C° 0.8 mm 0 mps 636 mmHg 65%
    15:00 +24°C° 0.4 mm 0 mps 636 mmHg 69%
    16:00 +23°C° 0.4 mm 0 mps 636 mmHg 74%
    17:00 +22°C° 0.4 mm 0 mps 635 mmHg 78%
    18:00 +23°C° 0.4 mm 1 mps 636 mmHg 81%
    19:00 +22°C° 0.4 mm 1 mps 636 mmHg 84%
    20:00 +20°C° 0.4 mm 1 mps 636 mmHg 87%
    21:00 +20°C° 0.1 mm 1 mps 636 mmHg 87%
    22:00 +20°C° 0.1 mm 1 mps 637 mmHg 86%
    23:00 +20°C° 0.1 mm 1 mps 637 mmHg 86%

    24 January, Thursday

    Time Temperature Precipitation Wind Pressure Humidity
    00:00 +19°C° 0.1 mm 1 mps 636 mmHg 87%
    01:00 +19°C° 0.1 mm 1 mps 636 mmHg 88%
    02:00 +19°C° 0.1 mm 1 mps 636 mmHg 89%
    03:00 +19°C° 0 mm 1 mps 636 mmHg 90%
    04:00 +18°C° 0 mm 1 mps 636 mmHg 91%
    05:00 +18°C° 0 mm 1 mps 636 mmHg 92%
    06:00 +20°C° 0 mm 1 mps 637 mmHg 87%
    07:00 +21°C° 0 mm 1 mps 638 mmHg 83%
    08:00 +23°C° 0 mm 1 mps 639 mmHg 79%
    09:00 +24°C° 0.8 mm 1 mps 638 mmHg 73%
    10:00 +26°C° 0.8 mm 1 mps 638 mmHg 67%
    11:00 +27°C° 0.8 mm 1 mps 638 mmHg 61%
    12:00 +28°C° 0.2 mm 1 mps 638 mmHg 57%
    13:00 +29°C° 0.2 mm 1 mps 638 mmHg 53%
    14:00 +28°C° 0.2 mm 0 mps 637 mmHg 50%
    15:00 +26°C° 0.4 mm 0 mps 637 mmHg 58%
    16:00 +25°C° 0.4 mm 0 mps 636 mmHg 66%
    17:00 +23°C° 0.4 mm 0 mps 636 mmHg 74%
    18:00 +22°C° 0.3 mm 0 mps 636 mmHg 76%
    19:00 +21°C° 0.3 mm 0 mps 636 mmHg 78%
    20:00 +19°C° 0.3 mm 0 mps 636 mmHg 80%
    21:00 +19°C° 0.1 mm 0 mps 636 mmHg 81%
    22:00 +21°C° 0.1 mm 1 mps 637 mmHg 81%
    23:00 +20°C° 0.1 mm 1 mps 637 mmHg 82%

    25 January, Friday

    Time Temperature Precipitation Wind Pressure Humidity
    00:00 +20°C° 0 mm 1 mps 637 mmHg 83%
    01:00 +19°C° 0 mm 1 mps 637 mmHg 84%
    02:00 +19°C° 0 mm 1 mps 636 mmHg 85%
    03:00 +19°C° 0 mm 1 mps 636 mmHg 85%
    04:00 +18°C° 0 mm 1 mps 637 mmHg 86%
    05:00 +18°C° 0 mm 1 mps 637 mmHg 86%
    06:00 +19°C° 0 mm 1 mps 638 mmHg 82%
    07:00 +20°C° 0 mm 1 mps 638 mmHg 79%
    08:00 +22°C° 0 mm 1 mps 639 mmHg 75%
    09:00 +23°C° 0 mm 1 mps 639 mmHg 65%
    10:00 +25°C° 0 mm 1 mps 639 mmHg 55%
    11:00 +27°C° 0 mm 1 mps 640 mmHg 46%
    12:00 +28°C° 0 mm 1 mps 639 mmHg 44%
    13:00 +28°C° 0 mm 1 mps 638 mmHg 41%
    14:00 +29°C° 0 mm 2 mps 638 mmHg 39%
    15:00 +27°C° 0 mm 1 mps 637 mmHg 47%
    16:00 +26°C° 0 mm 1 mps 637 mmHg 54%
    17:00 +25°C° 0 mm 1 mps 636 mmHg 61%
    18:00 +24°C° 0 mm 1 mps 636 mmHg 65%
    19:00 +22°C° 0 mm 1 mps 636 mmHg 68%
    20:00 +21°C° 0 mm 1 mps 636 mmHg 71%
    21:00 +20°C° 0 mm 1 mps 637 mmHg 72%
    22:00 +19°C° 0 mm 2 mps 637 mmHg 73%
    23:00 +19°C° 0 mm 2 mps 637 mmHg 74%
    Show more